sat.trackr.live / text

‹ back to catalog

YAOGAN-36 03C

NORAD 54376 · 2022-160E

PAYLOAD ACTIVE UNKNOWN

§ Identity

Operator
Country
PRC
Launch date
2022-11-27
Launch site
XICLF
Launch vehicle
Mass (kg)
RCS (m²)

External: N2YO · Heavens-Above · Gunter

§ Orbital elements

Epoch: 2026-09-20T23:34:24.231360Z

Period
94.58 min
Inclination
35.0073°
Eccentricity
0.0008529
Mean motion
15.22564870 rev/d
Perigee alt
492.2 km
Apogee alt
504.0 km
Semi-major
6,876.2 km
B*
2.8072e-4
RAAN
97.1474°
Arg perigee
170.4566°
Mean anomaly
189.6312°
Rev number
21,266

§ Raw data

YAOGAN-36 03C1 54376U 22160E   26263.98222490  .00006651  00000+0  28072-3 0  99902 54376  35.0073  97.1474 0008529 170.4566 189.6312 15.22564870212667

JSON: /api/v1/satellites/54376 · /tle

For live sub-satellite position, see the globe view (requires WebGL).

§ Visibility from observer

Set your observer location to see the next 7 days of passes ≥ 10°. The values pass through the URL so the page stays shareable.

No JS? Fill the form by hand. The geolocation button needs JavaScript.